M1DJR Weather Reports


time (UTC)temp
C
wind
direction
speed
KPH
gust
KPH
rain 1hr
cm
rain 24hr
cm
rain mn
cm
humidity
%
barometer
mb
20260507160657 17 0.0 0.0 0.00 0.00 0.00 34 1013.4
20260507155655 17 0.0 0.0 0.00 0.00 0.00 35 1013.4
20260507154733 17 0.0 0.0 0.00 0.00 0.00 36 1013.5
20260507153731 17 0.0 0.0 0.00 0.00 0.00 36 1013.5
20260507152649 17 0.0 0.0 0.00 0.00 0.00 35 1013.7
20260507151648 17 0.0 0.0 0.00 0.00 0.00 34 1013.7
20260507150646 17 0.0 0.0 0.00 0.00 0.00 36 1013.7
20260507145642 17 0.0 0.0 0.00 0.00 0.00 36 1013.8
20260507144641 17 0.0 0.0 0.00 0.00 0.00 36 1013.8
20260507143639 17 0.0 0.0 0.00 0.00 0.00 35 1013.9
20260507142717 17 0.0 0.0 0.00 0.00 0.00 34 1014.1
20260507141635 17 0.0 0.0 0.00 0.00 0.00 37 1014.2
20260507140714 16 0.0 0.0 0.00 0.00 0.00 40 1014.2
20260507135632 16 0.0 0.0 0.00 0.00 0.00 40 1014.3
20260507134628 16 0.0 0.0 0.00 0.00 0.00 39 1014.5
20260507133627 16 0.0 0.0 0.00 0.00 0.00 38 1014.5
20260507132625 16 0.0 0.0 0.00 0.00 0.00 38 1014.5
20260507131703 17 0.0 0.0 0.00 0.00 0.00 37 1014.5
20260507130621 17 0.0 0.0 0.00 0.00 0.00 37 1014.4
20260507125618 17 0.0 0.0 0.00 0.00 0.00 36 1014.5
20260507124617 17 0.0 0.0 0.00 0.00 0.00 37 1014.4
20260507123654 17 0.0 0.0 0.00 0.00 0.00 38 1014.5
20260507122613 17 0.0 0.0 0.00 0.00 0.00 39 1014.5
20260507121610 17 0.0 0.0 0.00 0.00 0.00 39 1014.6
20260507120609 16 0.0 0.0 0.00 0.00 0.00 41 1014.6
20260507115606 16 0.0 0.0 0.00 0.00 0.00 42 1014.8
20260507114605 16 0.0 0.0 0.00 0.00 0.00 42 1014.8
20260507113603 16 0.0 0.0 0.00 0.00 0.00 43 1014.9
20260507112601 16 0.0 0.0 0.00 0.00 0.00 44 1014.9
20260507111559 15 0.0 0.0 0.00 0.00 0.00 47 1015.0
20260507110636 15 0.0 0.0 0.00 0.00 0.00 48 1015.0
20260507105635 15 0.0 0.0 0.00 0.00 0.00 52 1015.0
20260507104552 14 0.0 0.0 0.00 0.00 0.00 53 1015.1
20260507103551 14 0.0 0.0 0.00 0.00 0.00 53 1015.2
20260507102549 13 0.0 0.0 0.00 0.00 0.00 56 1015.2
20260507101546 13 0.0 0.0 0.00 0.00 0.00 57 1015.2
20260507100545 13 0.0 0.0 0.00 0.00 0.00 59 1015.2
20260507095542 12 0.0 0.0 0.00 0.00 0.00 61 1015.2
20260507094541 12 0.0 0.0 0.00 0.00 0.00 62 1015.3
20260507093539 12 0.0 0.0 0.00 0.00 0.00 64 1015.3
20260507092537 11 0.0 0.0 0.00 0.00 0.00 65 1015.3
20260507091534 11 0.0 0.0 0.00 0.00 0.00 66 1015.3
20260507090533 11 0.0 0.0 0.00 0.00 0.00 67 1015.3
20260507085530 10 0.0 0.0 0.00 0.00 0.00 69 1015.3
20260507084529 10 0.0 0.0 0.00 0.00 0.00 70 1015.3
20260507083527 10 0.0 0.0 0.00 0.00 0.00 72 1015.3
20260507082525 10 0.0 0.0 0.00 0.00 0.00 73 1015.3
20260507081524 9 0.0 0.0 0.00 0.00 0.00 75 1015.4
20260507080601 8 0.0 0.0 0.00 0.00 0.00 76 1015.4
20260507075559 8 0.0 0.0 0.00 0.00 0.00 77 1015.4
20260507074517 7 0.0 0.0 0.00 0.00 0.00 78 1015.3
20260507073514 7 0.0 0.0 0.00 0.00 0.00 80 1015.3
20260507072513 7 0.0 0.0 0.00 0.00 0.00 81 1015.2
20260507071510 6 0.0 0.0 0.00 0.00 0.00 82 1015.2
20260507070549 6 0.0 0.0 0.00 0.00 0.00 83 1015.2
20260507065508 6 0.0 0.0 0.00 0.00 0.00 84 1015.2
20260507064505 5 0.0 0.0 0.00 0.00 0.00 84 1015.1
20260507063544 5 0.0 0.0 0.00 0.00 0.00 84 1015.1
20260507062502 5 0.0 0.0 0.00 0.00 0.00 84 1015.0
20260507061459 5 0.0 0.0 0.00 0.00 0.00 83 1015.0
20260507060456 5 0.0 0.0 0.00 0.00 0.00 83 1014.8
20260507055455 4 0.0 0.0 0.00 0.00 0.00 83 1014.9
20260507054453 4 0.0 0.0 0.00 0.00 0.00 82 1014.9
20260507053531 4 0.0 0.0 0.00 0.00 0.00 82 1014.9
20260507052448 5 0.0 0.0 0.00 0.00 0.00 82 1014.9
20260507051447 5 0.0 0.0 0.00 0.00 0.00 81 1014.9
20260507050446 5 0.0 0.0 0.00 0.00 0.00 81 1014.9
20260507045443 5 0.0 0.0 0.00 0.00 0.00 81 1014.8
20260507044441 5 0.0 0.0 0.00 0.00 0.00 81 1014.6
20260507043438 5 0.0 0.0 0.00 0.00 0.00 81 1014.6
20260507042437 5 0.0 0.0 0.00 0.00 0.00 81 1014.5
20260507041514 5 0.0 0.0 0.00 0.00 0.00 80 1014.5
20260507040433 5 0.0 0.0 0.00 0.00 0.00 80 1014.5
20260507035511 5 0.0 0.0 0.00 0.00 0.00 80 1014.4
20260507034429 5 0.0 0.0 0.00 0.00 0.00 80 1014.4
20260507033426 5 0.0 0.0 0.00 0.00 0.00 80 1014.4
20260507032425 5 0.0 0.0 0.00 0.00 0.00 80 1014.4
20260507031422 5 0.0 0.0 0.00 0.00 0.00 81 1014.5
20260507030421 5 0.0 0.0 0.00 0.00 0.00 81 1014.6
20260507025420 5 0.0 0.0 0.00 0.00 0.00 81 1014.6
20260507024457 5 0.0 0.0 0.00 0.00 0.00 81 1014.6
20260507023415 5 0.0 0.0 0.00 0.00 0.00 80 1014.5
20260507022413 5 0.0 0.0 0.00 0.00 0.00 80 1014.6
20260507021451 5 0.0 0.0 0.00 0.00 0.00 80 1014.6
20260507020409 5 0.0 0.0 0.00 0.00 0.00 79 1014.8
20260507015407 5 0.0 0.0 0.00 0.00 0.00 79 1014.9
20260507014406 5 0.0 0.0 0.00 0.00 0.00 79 1014.9
20260507013443 5 0.0 0.0 0.00 0.00 0.00 79 1014.9
20260507012400 5 0.0 0.0 0.00 0.00 0.00 78 1014.9
20260507011359 5 0.0 0.0 0.00 0.00 0.00 78 1014.9
20260507010357 5 0.0 0.0 0.00 0.00 0.00 78 1015.0
20260507005354 5 0.0 0.0 0.00 0.00 0.00 78 1015.0
20260507004433 5 0.0 0.0 0.00 0.00 0.00 78 1015.0
20260507003350 5 0.0 0.0 0.00 0.00 0.00 79 1015.1
20260507002429 5 0.0 0.0 0.00 0.00 0.00 78 1015.2
20260507001346 5 0.0 0.0 0.00 0.00 0.00 78 1015.3
20260507000345 5 0.0 0.0 0.00 0.00 0.00 78 1015.3
20260506235342 5 0.0 0.0 0.00 0.00 0.00 78 1015.2
20260506234341 5 0.0 0.0 0.00 0.00 0.00 78 1015.3
20260506233338 5 0.0 0.0 0.00 0.00 0.00 78 1015.3
20260506232417 5 0.0 0.0 0.00 0.00 0.00 77 1015.2
20260506231414 5 0.0 0.0 0.00 0.00 0.00 77 1015.3
20260506230333 5 0.0 0.0 0.00 0.00 0.00 77 1015.3
20260506225331 5 0.0 0.0 0.00 0.00 0.00 76 1015.3
20260506224329 5 0.0 0.0 0.00 0.00 0.00 76 1015.4
20260506223406 5 0.0 0.0 0.00 0.00 0.00 75 1015.3
20260506222325 5 0.0 0.0 0.00 0.00 0.00 75 1015.2
20260506221322 6 0.0 0.0 0.00 0.00 0.00 75 1015.1
20260506220321 6 0.0 0.0 0.00 0.00 0.00 74 1015.1
20260506215359 6 0.0 0.0 0.00 0.00 0.00 74 1015.1
20260506214317 6 0.0 0.0 0.00 0.00 0.00 73 1014.9
20260506213315 6 0.0 0.0 0.00 0.00 0.00 73 1014.8
20260506212312 6 0.0 0.0 0.00 0.00 0.00 72 1014.6
20260506211311 6 0.0 0.0 0.00 0.00 0.00 72 1014.5
20260506210309 7 0.0 0.0 0.00 0.00 0.00 71 1014.4
20260506205306 7 0.0 0.0 0.00 0.00 0.00 71 1014.3
20260506204345 7 0.0 0.0 0.00 0.00 0.00 70 1014.4
20260506203303 7 0.0 0.0 0.00 0.00 0.00 70 1014.4
20260506202301 7 0.0 0.0 0.00 0.00 0.00 69 1014.4
20260506201339 8 0.0 0.0 0.00 0.00 0.00 69 1014.2
20260506200258 8 0.0 0.0 0.00 0.00 0.00 69 1014.1
20260506195254 8 0.0 0.0 0.00 0.00 0.00 69 1014.1
20260506194253 8 0.0 0.0 0.00 0.00 0.00 68 1013.9
20260506193251 8 0.0 0.0 0.00 0.00 0.00 67 1013.9
20260506192248 9 0.0 0.0 0.00 0.00 0.00 65 1013.8
20260506191247 9 0.0 0.0 0.00 0.00 0.00 64 1013.9
20260506190244 10 0.0 0.0 0.00 0.00 0.00 64 1013.9
20260506185323 10 0.0 0.0 0.00 0.00 0.00 63 1014.0
20260506184321 10 0.0 0.0 0.00 0.00 0.00 62 1013.9
20260506183239 10 0.0 0.0 0.00 0.00 0.00 61 1013.9
20260506182236 10 0.0 0.0 0.00 0.00 0.00 60 1013.9
20260506181315 10 0.0 0.0 0.00 0.00 0.00 60 1013.9
20260506180233 10 0.0 0.0 0.00 0.00 0.00 59 1013.9
20260506175311 10 0.0 0.0 0.00 0.00 0.00 59 1013.8
20260506174229 11 0.0 0.0 0.00 0.00 0.00 58 1013.7
20260506173227 11 0.0 0.0 0.00 0.00 0.00 58 1013.7
20260506172225 11 0.0 0.0 0.00 0.00 0.00 57 1013.6
20260506171223 11 0.0 0.0 0.00 0.00 0.00 57 1013.6
20260506170222 11 0.0 0.0 0.00 0.00 0.00 57 1013.6
20260506165219 11 0.0 0.0 0.00 0.00 0.00 56 1013.5
20260506164217 11 0.0 0.0 0.00 0.00 0.00 56 1013.5
20260506163215 11 0.0 0.0 0.00 0.00 0.00 55 1013.5
20260506162213 11 0.0 0.0 0.00 0.00 0.00 55 1013.5
20260506161251 11 0.0 0.0 0.00 0.00 0.00 53 1013.4